Location: Ash Swamp
(41.5170°N, 74.6157°W)
Time: 16:42:36
(UTC+00:00)

GEOS 3 Rocket - Pass Details

Date: 14 July 2020
Orbit: 771 x 848 km, 115.0° (Epoch: 04 August)

Event Time Altitude Azimuth Distance (km) Brightness Sun altitude
Rises 02:06:55 0° 43° (NE) 3,414 6.9 -14.7°
Reaches altitude 10° 02:09:26 10° 52° (NE) 2,476 6.1 -15.0°
Maximum altitude 02:14:24 37° 119° (ESE) 1,297 4.2 -15.6°
Enters shadow 02:17:52 18° 176° (S) 1,960 5.1 -16.0°
